PRIVATE WETTERSTATION BILLIGHEIM-ALLFELD                       ZURCK
Wetterdaten: Donnerstag, 05.06.2014
Datum Zeit Temp. A. Temp. A. min Temp. A. max Feuchte A. Luftdruck Regen Wind Richtung Richtung Sonnenschein ET Solar Taupunkt Windchill Windben Empfang
05.06.2014 00:00 12,9 C 12,9 C 13,0 C 85 % 1009,1 hPa 0,0 l/m 11,3 km/h (2 Bft) S-SW 202 0 min 0,025 mm 0 W/m 10,4 C 10,2 C 22,5 km/h (4 Bft) 100 %
05.06.2014 00:10 12,9 C 12,8 C 12,9 C 85 % 1009,3 hPa 0,0 l/m 12,9 km/h (3 Bft) SW 225 0 min 0,000 mm 0 W/m 10,4 C 9,5 C 29,0 km/h (5 Bft) 100 %
05.06.2014 00:20 12,8 C 12,8 C 12,9 C 85 % 1009,4 hPa 0,0 l/m 9,7 km/h (2 Bft) S-SW 202 0 min 0,000 mm 0 W/m 10,3 C 10,8 C 22,5 km/h (4 Bft) 100 %
05.06.2014 00:30 12,7 C 12,7 C 12,8 C 85 % 1009,4 hPa 0,0 l/m 9,7 km/h (2 Bft) S-SW 202 0 min 0,000 mm 0 W/m 10,2 C 10,7 C 20,9 km/h (4 Bft) 100 %
05.06.2014 00:40 12,6 C 12,6 C 12,7 C 86 % 1009,6 hPa 0,0 l/m 11,3 km/h (2 Bft) S-SW 202 0 min 0,000 mm 0 W/m 10,3 C 9,8 C 22,5 km/h (4 Bft) 100 %
05.06.2014 00:50 12,5 C 12,5 C 12,6 C 86 % 1009,7 hPa 0,0 l/m 12,9 km/h (3 Bft) S-SW 202 0 min 0,000 mm 0 W/m 10,2 C 9,0 C 20,9 km/h (4 Bft) 100 %
05.06.2014 01:00 12,4 C 12,4 C 12,5 C 86 % 1009,8 hPa 0,0 l/m 9,7 km/h (2 Bft) S-SW 202 0 min 0,025 mm 0 W/m 10,1 C 10,4 C 19,3 km/h (3 Bft) 100 %
05.06.2014 01:10 12,3 C 12,3 C 12,4 C 86 % 1009,9 hPa 0,0 l/m 11,3 km/h (2 Bft) S-SW 202 0 min 0,000 mm 0 W/m 10,0 C 9,5 C 19,3 km/h (3 Bft) 100 %
05.06.2014 01:20 12,2 C 12,2 C 12,3 C 87 % 1010,1 hPa 0,0 l/m 8,0 km/h (2 Bft) S-SW 202 0 min 0,000 mm 0 W/m 10,1 C 11,2 C 20,9 km/h (4 Bft) 100 %
05.06.2014 01:30 12,2 C 12,2 C 12,2 C 86 % 1010,1 hPa 0,0 l/m 11,3 km/h (2 Bft) SW 225 0 min 0,000 mm 0 W/m 9,9 C 9,4 C 30,6 km/h (5 Bft) 100 %
05.06.2014 01:40 12,1 C 12,1 C 12,2 C 85 % 1010,5 hPa 0,0 l/m 9,7 km/h (2 Bft) SW 225 0 min 0,000 mm 0 W/m 9,7 C 10,1 C 27,4 km/h (4 Bft) 100 %
05.06.2014 01:50 12,0 C 12,0 C 12,1 C 84 % 1010,6 hPa 0,0 l/m 8,0 km/h (2 Bft) W-SW 247 0 min 0,000 mm 0 W/m 9,4 C 11,0 C 24,1 km/h (4 Bft) 100 %
05.06.2014 02:00 11,8 C 11,8 C 12,0 C 83 % 1010,8 hPa 0,0 l/m 11,3 km/h (2 Bft) W-SW 247 0 min 0,025 mm 0 W/m 9,0 C 8,9 C 24,1 km/h (4 Bft) 100 %
05.06.2014 02:10 11,6 C 11,6 C 11,8 C 83 % 1011,0 hPa 0,0 l/m 9,7 km/h (2 Bft) SW 225 0 min 0,000 mm 0 W/m 8,8 C 9,5 C 22,5 km/h (4 Bft) 100 %
05.06.2014 02:20 11,3 C 11,3 C 11,6 C 83 % 1011,1 hPa 0,0 l/m 9,7 km/h (2 Bft) SW 225 0 min 0,000 mm 0 W/m 8,5 C 9,2 C 25,7 km/h (4 Bft) 100 %
05.06.2014 02:30 11,1 C 11,1 C 11,3 C 83 % 1011,3 hPa 0,0 l/m 9,7 km/h (2 Bft) W-SW 247 0 min 0,000 mm 0 W/m 8,3 C 9,0 C 27,4 km/h (4 Bft) 100 %
05.06.2014 02:40 10,9 C 10,9 C 11,1 C 84 % 1011,5 hPa 0,0 l/m 9,7 km/h (2 Bft) SW 225 0 min 0,000 mm 0 W/m 8,3 C 8,8 C 24,1 km/h (4 Bft) 100 %
05.06.2014 02:50 10,8 C 10,8 C 10,9 C 84 % 1011,8 hPa 0,0 l/m 8,0 km/h (2 Bft) W 270 0 min 0,000 mm 0 W/m 8,2 C 9,7 C 20,9 km/h (4 Bft) 100 %
05.06.2014 03:00 10,8 C 10,8 C 10,8 C 84 % 1011,8 hPa 0,0 l/m 6,4 km/h (2 Bft) W 270 0 min 0,025 mm 0 W/m 8,2 C 10,8 C 16,1 km/h (3 Bft) 99 %
05.06.2014 03:10 10,9 C 10,8 C 10,9 C 84 % 1011,9 hPa 0,0 l/m 8,0 km/h (2 Bft) W 270 0 min 0,000 mm 0 W/m 8,3 C 9,8 C 25,7 km/h (4 Bft) 100 %
05.06.2014 03:20 11,0 C 10,9 C 11,0 C 84 % 1012,1 hPa 0,0 l/m 9,7 km/h (2 Bft) W-SW 247 0 min 0,000 mm 0 W/m 8,4 C 8,9 C 22,5 km/h (4 Bft) 100 %
05.06.2014 03:30 11,1 C 11,0 C 11,1 C 84 % 1012,1 hPa 0,0 l/m 4,8 km/h (1 Bft) W 270 0 min 0,000 mm 0 W/m 8,5 C 11,1 C 16,1 km/h (3 Bft) 100 %
05.06.2014 03:40 11,0 C 11,0 C 11,1 C 85 % 1012,1 hPa 0,0 l/m 1,6 km/h (1 Bft) SW 225 0 min 0,000 mm 0 W/m 8,6 C 11,0 C 8,0 km/h (2 Bft) 100 %
05.06.2014 03:50 10,9 C 10,9 C 11,0 C 85 % 1012,2 hPa 0,0 l/m 3,2 km/h (1 Bft) SW 225 0 min 0,000 mm 0 W/m 8,5 C 10,9 C 9,7 km/h (2 Bft) 100 %
05.06.2014 04:00 10,9 C 10,9 C 10,9 C 85 % 1012,2 hPa 0,0 l/m 3,2 km/h (1 Bft) S-SW 202 0 min 0,025 mm 0 W/m 8,5 C 10,9 C 11,3 km/h (2 Bft) 100 %
05.06.2014 04:10 10,8 C 10,8 C 10,9 C 85 % 1012,1 hPa 0,0 l/m 3,2 km/h (1 Bft) SW 225 0 min 0,000 mm 0 W/m 8,4 C 10,8 C 11,3 km/h (2 Bft) 100 %
05.06.2014 04:20 10,5 C 10,5 C 10,8 C 86 % 1012,3 hPa 0,0 l/m 4,8 km/h (1 Bft) S-SW 202 0 min 0,000 mm 0 W/m 8,3 C 10,5 C 11,3 km/h (2 Bft) 100 %
05.06.2014 04:30 10,3 C 10,3 C 10,5 C 86 % 1012,3 hPa 0,0 l/m 8,0 km/h (2 Bft) S-SW 202 0 min 0,000 mm 0 W/m 8,1 C 9,2 C 22,5 km/h (4 Bft) 100 %
05.06.2014 04:40 10,2 C 10,2 C 10,3 C 86 % 1012,4 hPa 0,0 l/m 6,4 km/h (2 Bft) S-SW 202 0 min 0,000 mm 0 W/m 8,0 C 10,2 C 16,1 km/h (3 Bft) 100 %
05.06.2014 04:50 10,1 C 10,1 C 10,2 C 86 % 1012,5 hPa 0,0 l/m 8,0 km/h (2 Bft) S-SW 202 0 min 0,000 mm 0 W/m 7,9 C 9,0 C 22,5 km/h (4 Bft) 100 %
05.06.2014 05:00 9,9 C 9,9 C 10,1 C 86 % 1012,6 hPa 0,0 l/m 6,4 km/h (2 Bft) S-SW 202 0 min 0,025 mm 0 W/m 7,7 C 9,9 C 14,5 km/h (3 Bft) 99 %
05.06.2014 05:10 9,8 C 9,8 C 9,9 C 86 % 1012,5 hPa 0,0 l/m 4,8 km/h (1 Bft) S-SW 202 0 min 0,000 mm 0 W/m 7,6 C 9,8 C 16,1 km/h (3 Bft) 100 %
05.06.2014 05:20 9,7 C 9,7 C 9,9 C 86 % 1012,7 hPa 0,0 l/m 6,4 km/h (2 Bft) S-SW 202 0 min 0,000 mm 0 W/m 7,5 C 9,7 C 19,3 km/h (3 Bft) 100 %
05.06.2014 05:30 9,6 C 9,6 C 9,7 C 86 % 1012,8 hPa 0,0 l/m 8,0 km/h (2 Bft) S-SW 202 0 min 0,000 mm 0 W/m 7,4 C 8,4 C 17,7 km/h (3 Bft) 100 %
05.06.2014 05:40 9,6 C 9,6 C 9,7 C 86 % 1012,8 hPa 0,0 l/m 6,4 km/h (2 Bft) S-SW 202 0 min 0,000 mm 7 W/m 7,4 C 9,6 C 19,3 km/h (3 Bft) 100 %
05.06.2014 05:50 9,7 C 9,6 C 9,7 C 87 % 1013,1 hPa 0,0 l/m 1,6 km/h (1 Bft) SW 225 0 min 0,000 mm 11 W/m 7,6 C 9,7 C 11,3 km/h (2 Bft) 100 %
05.06.2014 06:00 9,7 C 9,7 C 9,7 C 86 % 1013,1 hPa 0,0 l/m 3,2 km/h (1 Bft) SW 225 0 min 0,000 mm 12 W/m 7,5 C 9,7 C 14,5 km/h (3 Bft) 100 %
05.06.2014 06:10 9,6 C 9,6 C 9,7 C 87 % 1013,3 hPa 0,0 l/m 1,6 km/h (1 Bft) SW 225 0 min 0,000 mm 25 W/m 7,5 C 9,6 C 6,4 km/h (2 Bft) 100 %
05.06.2014 06:20 9,6 C 9,5 C 9,6 C 87 % 1013,4 hPa 0,0 l/m 3,2 km/h (1 Bft) SW 225 0 min 0,000 mm 33 W/m 7,5 C 9,6 C 11,3 km/h (2 Bft) 100 %
05.06.2014 06:30 9,5 C 9,5 C 9,6 C 87 % 1013,4 hPa 0,0 l/m 3,2 km/h (1 Bft) S-SW 202 0 min 0,000 mm 35 W/m 7,4 C 9,5 C 11,3 km/h (2 Bft) 100 %
05.06.2014 06:40 9,5 C 9,4 C 9,5 C 87 % 1013,6 hPa 0,0 l/m 1,6 km/h (1 Bft) S-SW 202 0 min 0,000 mm 49 W/m 7,4 C 9,5 C 8,0 km/h (2 Bft) 100 %
05.06.2014 06:50 9,5 C 9,5 C 9,5 C 87 % 1013,7 hPa 0,0 l/m 1,6 km/h (1 Bft) S 180 0 min 0,000 mm 84 W/m 7,4 C 9,5 C 8,0 km/h (2 Bft) 100 %
05.06.2014 07:00 9,6 C 9,5 C 9,7 C 87 % 1013,9 hPa 0,0 l/m 1,6 km/h (1 Bft) S 180 0 min 0,025 mm 118 W/m 7,5 C 9,6 C 8,0 km/h (2 Bft) 100 %
05.06.2014 07:10 9,9 C 9,7 C 9,9 C 87 % 1013,9 hPa 0,0 l/m 1,6 km/h (1 Bft) S-SO 157 0 min 0,000 mm 100 W/m 7,8 C 9,9 C 9,7 km/h (2 Bft) 100 %
05.06.2014 07:20 10,1 C 9,9 C 10,1 C 86 % 1013,8 hPa 0,0 l/m 1,6 km/h (1 Bft) SW 225 0 min 0,000 mm 84 W/m 7,9 C 10,1 C 8,0 km/h (2 Bft) 100 %
05.06.2014 07:30 10,2 C 10,1 C 10,2 C 85 % 1013,8 hPa 0,0 l/m 3,2 km/h (1 Bft) SW 225 0 min 0,000 mm 113 W/m 7,8 C 10,2 C 9,7 km/h (2 Bft) 100 %
05.06.2014 07:40 10,4 C 10,2 C 10,4 C 85 % 1013,9 hPa 0,0 l/m 1,6 km/h (1 Bft) S-SW 202 0 min 0,000 mm 134 W/m 8,0 C 10,4 C 9,7 km/h (2 Bft) 100 %
05.06.2014 07:50 10,6 C 10,4 C 10,6 C 84 % 1013,9 hPa 0,0 l/m 3,2 km/h (1 Bft) S-SW 202 0 min 0,000 mm 128 W/m 8,0 C 10,6 C 9,7 km/h (2 Bft) 100 %
05.06.2014 08:00 10,7 C 10,6 C 10,7 C 83 % 1013,9 hPa 0,0 l/m 1,6 km/h (1 Bft) SW 225 0 min 0,051 mm 105 W/m 7,9 C 10,7 C 9,7 km/h (2 Bft) 100 %
05.06.2014 08:10 10,9 C 10,7 C 10,9 C 84 % 1013,9 hPa 0,0 l/m 1,6 km/h (1 Bft) S 180 10 min 0,000 mm 162 W/m 8,3 C 10,9 C 11,3 km/h (2 Bft) 100 %
05.06.2014 08:20 11,5 C 10,9 C 11,5 C 84 % 1014,1 hPa 0,0 l/m 3,2 km/h (1 Bft) S-SW 202 10 min 0,000 mm 526 W/m 8,9 C 11,5 C 17,7 km/h (3 Bft) 100 %
05.06.2014 08:30 11,8 C 11,6 C 11,8 C 82 % 1014,4 hPa 0,0 l/m 3,2 km/h (1 Bft) SW 225 10 min 0,000 mm 455 W/m 8,8 C 11,8 C 14,5 km/h (3 Bft) 100 %
05.06.2014 08:40 12,1 C 11,8 C 12,1 C 80 % 1014,4 hPa 0,0 l/m 3,2 km/h (1 Bft) S-SW 202 10 min 0,000 mm 294 W/m 8,8 C 12,1 C 11,3 km/h (2 Bft) 100 %
05.06.2014 08:50 12,3 C 12,1 C 12,3 C 83 % 1014,4 hPa 0,0 l/m 1,6 km/h (1 Bft) S-SW 202 10 min 0,000 mm 381 W/m 9,5 C 12,3 C 9,7 km/h (2 Bft) 100 %
05.06.2014 09:00 12,3 C 12,3 C 12,4 C 79 % 1014,6 hPa 0,0 l/m 4,8 km/h (1 Bft) S-SW 202 10 min 0,127 mm 267 W/m 8,8 C 12,3 C 14,5 km/h (3 Bft) 100 %
05.06.2014 09:10 12,3 C 12,3 C 12,4 C 77 % 1014,6 hPa 0,0 l/m 4,8 km/h (1 Bft) S-SW 202 10 min 0,000 mm 302 W/m 8,4 C 12,3 C 11,3 km/h (2 Bft) 99 %
05.06.2014 09:20 12,8 C 12,3 C 12,8 C 77 % 1014,6 hPa 0,0 l/m 1,6 km/h (1 Bft) SW 225 10 min 0,000 mm 568 W/m 8,9 C 12,8 C 8,0 km/h (2 Bft) 98 %
05.06.2014 09:30 13,7 C 12,8 C 13,7 C 78 % 1014,6 hPa 0,0 l/m 1,6 km/h (1 Bft) SW 225 10 min 0,000 mm 584 W/m 9,9 C 13,7 C 9,7 km/h (2 Bft) 97 %
05.06.2014 09:40 14,4 C 13,7 C 14,4 C 70 % 1014,6 hPa 0,0 l/m 3,2 km/h (1 Bft) S-SW 202 10 min 0,000 mm 612 W/m 9,0 C 14,4 C 14,5 km/h (3 Bft) 97 %
05.06.2014 09:50 14,8 C 14,4 C 14,8 C 69 % 1014,6 hPa 0,0 l/m 6,4 km/h (2 Bft) SW 225 10 min 0,000 mm 668 W/m 9,2 C 14,8 C 16,1 km/h (3 Bft) 98 %
05.06.2014 10:00 15,4 C 14,8 C 15,4 C 68 % 1014,5 hPa 0,0 l/m 6,4 km/h (2 Bft) S-SW 202 10 min 0,279 mm 828 W/m 9,5 C 15,4 C 24,1 km/h (4 Bft) 98 %
05.06.2014 10:10 15,2 C 15,1 C 15,4 C 67 % 1014,6 hPa 0,0 l/m 6,4 km/h (2 Bft) S-SW 202 10 min 0,000 mm 701 W/m 9,1 C 15,2 C 17,7 km/h (3 Bft) 98 %
05.06.2014 10:20 15,6 C 15,2 C 15,6 C 66 % 1014,6 hPa 0,0 l/m 8,0 km/h (2 Bft) SW 225 10 min 0,000 mm 763 W/m 9,3 C 14,7 C 24,1 km/h (4 Bft) 98 %
05.06.2014 10:30 15,8 C 15,6 C 15,8 C 67 % 1014,6 hPa 0,0 l/m 9,7 km/h (2 Bft) SW 225 10 min 0,000 mm 875 W/m 9,7 C 14,1 C 24,1 km/h (4 Bft) 98 %
05.06.2014 10:40 16,0 C 15,8 C 16,0 C 64 % 1014,7 hPa 0,0 l/m 9,7 km/h (2 Bft) SW 225 10 min 0,000 mm 888 W/m 9,2 C 14,4 C 20,9 km/h (4 Bft) 98 %
05.06.2014 10:50 15,9 C 15,9 C 16,1 C 60 % 1014,6 hPa 0,0 l/m 8,0 km/h (2 Bft) SW 225 10 min 0,000 mm 838 W/m 8,1 C 15,0 C 24,1 km/h (4 Bft) 97 %
05.06.2014 11:00 16,1 C 15,8 C 16,1 C 61 % 1014,6 hPa 0,0 l/m 8,0 km/h (2 Bft) SW 225 10 min 0,381 mm 821 W/m 8,6 C 15,3 C 19,3 km/h (3 Bft) 98 %
05.06.2014 11:10 16,7 C 16,1 C 16,7 C 59 % 1014,7 hPa 0,0 l/m 12,9 km/h (3 Bft) S-SW 202 10 min 0,000 mm 884 W/m 8,6 C 13,9 C 24,1 km/h (4 Bft) 97 %
05.06.2014 11:20 16,8 C 16,6 C 16,8 C 57 % 1014,6 hPa 0,0 l/m 9,7 km/h (2 Bft) W-SW 247 10 min 0,000 mm 868 W/m 8,2 C 15,2 C 25,7 km/h (4 Bft) 98 %
05.06.2014 11:30 16,7 C 16,7 C 16,8 C 57 % 1014,7 hPa 0,0 l/m 6,4 km/h (2 Bft) SW 225 10 min 0,000 mm 842 W/m 8,1 C 16,7 C 20,9 km/h (4 Bft) 97 %
05.06.2014 11:40 17,1 C 16,8 C 17,1 C 58 % 1014,8 hPa 0,0 l/m 11,3 km/h (2 Bft) S-SW 202 10 min 0,000 mm 986 W/m 8,8 C 14,9 C 27,4 km/h (4 Bft) 98 %
05.06.2014 11:50 17,1 C 17,0 C 17,1 C 56 % 1014,9 hPa 0,0 l/m 9,7 km/h (2 Bft) S-SW 202 10 min 0,000 mm 840 W/m 8,3 C 15,6 C 27,4 km/h (4 Bft) 98 %
05.06.2014 12:00 16,9 C 16,9 C 17,1 C 58 % 1014,9 hPa 0,0 l/m 4,8 km/h (1 Bft) W 270 10 min 0,432 mm 554 W/m 8,6 C 16,9 C 16,1 km/h (3 Bft) 97 %
05.06.2014 12:10 17,1 C 16,9 C 17,1 C 57 % 1014,9 hPa 0,0 l/m 6,4 km/h (2 Bft) SW 225 10 min 0,000 mm 735 W/m 8,5 C 17,1 C 19,3 km/h (3 Bft) 98 %
05.06.2014 12:20 17,2 C 17,1 C 17,2 C 54 % 1014,7 hPa 0,0 l/m 8,0 km/h (2 Bft) S-SW 202 10 min 0,000 mm 891 W/m 7,8 C 16,4 C 22,5 km/h (4 Bft) 97 %
05.06.2014 12:30 17,4 C 17,2 C 17,4 C 55 % 1014,7 hPa 0,0 l/m 11,3 km/h (2 Bft) S-SW 202 10 min 0,000 mm 925 W/m 8,3 C 15,3 C 22,5 km/h (4 Bft) 98 %
05.06.2014 12:40 17,5 C 17,4 C 17,5 C 53 % 1014,9 hPa 0,0 l/m 9,7 km/h (2 Bft) S-SW 202 10 min 0,000 mm 810 W/m 7,8 C 16,0 C 24,1 km/h (4 Bft) 96 %
05.06.2014 12:50 17,9 C 17,5 C 17,9 C 53 % 1014,8 hPa 0,0 l/m 8,0 km/h (2 Bft) S-SW 202 10 min 0,000 mm 1044 W/m 8,2 C 17,1 C 24,1 km/h (4 Bft) 98 %
05.06.2014 13:00 18,0 C 17,9 C 18,2 C 54 % 1014,9 hPa 0,0 l/m 9,7 km/h (2 Bft) S-SW 202 10 min 0,508 mm 1011 W/m 8,6 C 16,5 C 27,4 km/h (4 Bft) 98 %
05.06.2014 13:10 18,3 C 18,0 C 18,3 C 51 % 1014,9 hPa 0,0 l/m 11,3 km/h (2 Bft) SW 225 10 min 0,000 mm 1030 W/m 8,0 C 16,3 C 25,7 km/h (4 Bft) 97 %
05.06.2014 13:20 18,3 C 18,2 C 18,3 C 51 % 1014,8 hPa 0,0 l/m 11,3 km/h (2 Bft) S-SW 202 10 min 0,000 mm 1083 W/m 8,0 C 16,3 C 22,5 km/h (4 Bft) 98 %
05.06.2014 13:30 18,6 C 18,3 C 18,6 C 49 % 1014,9 hPa 0,0 l/m 12,9 km/h (3 Bft) SW 225 10 min 0,000 mm 1048 W/m 7,7 C 16,1 C 24,1 km/h (4 Bft) 97 %
05.06.2014 13:40 18,3 C 18,2 C 18,6 C 50 % 1014,8 hPa 0,0 l/m 11,3 km/h (2 Bft) S-SW 202 10 min 0,000 mm 830 W/m 7,7 C 16,3 C 27,4 km/h (4 Bft) 98 %
05.06.2014 13:50 18,4 C 18,3 C 18,4 C 49 % 1014,8 hPa 0,0 l/m 6,4 km/h (2 Bft) SW 225 10 min 0,000 mm 984 W/m 7,5 C 18,4 C 17,7 km/h (3 Bft) 97 %
05.06.2014 14:00 19,0 C 18,5 C 19,0 C 49 % 1014,8 hPa 0,0 l/m 11,3 km/h (2 Bft) W 270 10 min 0,533 mm 974 W/m 8,0 C 17,1 C 24,1 km/h (4 Bft) 98 %
05.06.2014 14:10 19,1 C 19,0 C 19,1 C 46 % 1014,7 hPa 0,0 l/m 9,7 km/h (2 Bft) W-NW 292 10 min 0,000 mm 986 W/m 7,2 C 17,8 C 24,1 km/h (4 Bft) 98 %
05.06.2014 14:20 19,0 C 18,9 C 19,1 C 47 % 1014,8 hPa 0,0 l/m 11,3 km/h (2 Bft) W-NW 292 10 min 0,000 mm 930 W/m 7,4 C 17,1 C 37,0 km/h (5 Bft) 97 %
05.06.2014 14:30 19,6 C 19,0 C 19,6 C 42 % 1014,8 hPa 0,0 l/m 9,7 km/h (2 Bft) W 270 10 min 0,000 mm 926 W/m 6,3 C 18,3 C 24,1 km/h (4 Bft) 98 %
05.06.2014 14:40 19,2 C 19,2 C 19,6 C 41 % 1014,7 hPa 0,0 l/m 14,5 km/h (3 Bft) W 270 10 min 0,000 mm 925 W/m 5,6 C 16,4 C 29,0 km/h (5 Bft) 97 %
05.06.2014 14:50 19,1 C 19,1 C 19,2 C 43 % 1014,7 hPa 0,0 l/m 12,9 km/h (3 Bft) W 270 10 min 0,000 mm 867 W/m 6,2 C 16,7 C 27,4 km/h (4 Bft) 98 %
05.06.2014 15:00 19,2 C 19,1 C 19,2 C 43 % 1014,7 hPa 0,0 l/m 14,5 km/h (3 Bft) W 270 10 min 0,584 mm 875 W/m 6,3 C 16,4 C 29,0 km/h (5 Bft) 97 %
05.06.2014 15:10 19,5 C 19,2 C 19,5 C 43 % 1014,6 hPa 0,0 l/m 11,3 km/h (2 Bft) W 270 10 min 0,000 mm 854 W/m 6,6 C 17,7 C 24,1 km/h (4 Bft) 98 %
05.06.2014 15:20 19,9 C 19,5 C 19,9 C 43 % 1014,7 hPa 0,0 l/m 9,7 km/h (2 Bft) W 270 10 min 0,000 mm 889 W/m 6,9 C 18,6 C 22,5 km/h (4 Bft) 98 %
05.06.2014 15:30 19,8 C 19,7 C 19,9 C 44 % 1014,7 hPa 0,0 l/m 8,0 km/h (2 Bft) W-NW 292 10 min 0,000 mm 867 W/m 7,2 C 19,1 C 20,9 km/h (4 Bft) 97 %
05.06.2014 15:50 20,0 C 19,7 C 20,0 C 45 % 1014,8 hPa 0,0 l/m 9,6 km/h (2 Bft) NW 308 20 min 0,000 mm 770 W/m 7,7 C 18,8 C 24,1 km/h (4 Bft) 100 %
05.06.2014 16:00 20,1 C 20,0 C 20,2 C 37 % 1014,8 hPa 0,0 l/m 13,9 km/h (3 Bft) W 261 10 min 0,511 mm 745 W/m 5,0 C 17,6 C 27,4 km/h (4 Bft) 100 %
05.06.2014 16:10 20,0 C 19,9 C 20,1 C 41 % 1014,5 hPa 0,0 l/m 9,8 km/h (2 Bft) W 268 10 min 0,000 mm 715 W/m 6,3 C 18,7 C 24,1 km/h (4 Bft) 100 %
05.06.2014 16:20 20,1 C 20,0 C 20,1 C 40 % 1014,5 hPa 0,0 l/m 9,4 km/h (2 Bft) W-NW 301 10 min 0,000 mm 715 W/m 6,1 C 19,0 C 24,1 km/h (4 Bft) 100 %
05.06.2014 16:30 20,1 C 20,1 C 20,2 C 39 % 1014,5 hPa 0,0 l/m 7,6 km/h (2 Bft) W-NW 298 10 min 0,000 mm 694 W/m 5,7 C 19,6 C 20,9 km/h (4 Bft) 100 %
05.06.2014 16:40 20,0 C 19,9 C 20,1 C 40 % 1014,4 hPa 0,0 l/m 8,8 km/h (2 Bft) W 259 10 min 0,000 mm 726 W/m 6,0 C 19,1 C 20,9 km/h (4 Bft) 100 %
05.06.2014 16:50 19,8 C 19,8 C 20,1 C 43 % 1014,4 hPa 0,0 l/m 9,8 km/h (2 Bft) W 260 10 min 0,000 mm 411 W/m 6,9 C 18,5 C 25,7 km/h (4 Bft) 100 %
05.06.2014 17:00 20,0 C 19,8 C 20,0 C 42 % 1014,4 hPa 0,0 l/m 7,3 km/h (2 Bft) W 279 10 min 0,432 mm 388 W/m 6,7 C 19,6 C 20,9 km/h (4 Bft) 100 %
05.06.2014 17:10 20,2 C 20,0 C 20,2 C 41 % 1014,4 hPa 0,0 l/m 8,5 km/h (2 Bft) W 273 10 min 0,000 mm 362 W/m 6,5 C 19,4 C 20,9 km/h (4 Bft) 100 %
05.06.2014 17:20 20,2 C 20,1 C 20,2 C 43 % 1014,5 hPa 0,0 l/m 7,7 km/h (2 Bft) W 271 10 min 0,000 mm 577 W/m 7,2 C 19,7 C 22,5 km/h (4 Bft) 100 %
05.06.2014 17:30 19,9 C 19,9 C 20,2 C 43 % 1014,5 hPa 0,0 l/m 6,2 km/h (2 Bft) S-SW 211 10 min 0,000 mm 241 W/m 6,9 C 19,9 C 17,7 km/h (3 Bft) 100 %
05.06.2014 17:40 19,9 C 19,9 C 19,9 C 45 % 1014,3 hPa 0,0 l/m 5,2 km/h (1 Bft) W-NW 293 10 min 0,000 mm 545 W/m 7,6 C 19,9 C 16,1 km/h (3 Bft) 100 %
05.06.2014 17:50 19,8 C 19,8 C 19,9 C 43 % 1014,3 hPa 0,0 l/m 7,0 km/h (2 Bft) S-SO 159 10 min 0,000 mm 578 W/m 6,9 C 19,6 C 20,9 km/h (4 Bft) 100 %
05.06.2014 18:00 20,0 C 19,7 C 20,0 C 43 % 1014,4 hPa 0,0 l/m 7,5 km/h (2 Bft) W-SW 257 10 min 0,330 mm 468 W/m 7,0 C 19,5 C 22,5 km/h (4 Bft) 100 %
05.06.2014 18:10 19,9 C 19,8 C 20,0 C 41 % 1014,3 hPa 0,0 l/m 8,8 km/h (2 Bft) W 280 0 min 0,000 mm 113 W/m 6,3 C 18,9 C 20,9 km/h (4 Bft) 100 %
05.06.2014 18:20 19,7 C 19,7 C 19,9 C 43 % 1014,2 hPa 0,0 l/m 6,2 km/h (2 Bft) W-SW 252 10 min 0,000 mm 301 W/m 6,8 C 19,7 C 16,1 km/h (3 Bft) 100 %
05.06.2014 18:30 19,5 C 19,5 C 19,7 C 43 % 1014,3 hPa 0,0 l/m 4,4 km/h (1 Bft) W 273 10 min 0,000 mm 193 W/m 6,6 C 19,5 C 17,7 km/h (3 Bft) 100 %
05.06.2014 18:40 19,3 C 19,3 C 19,5 C 43 % 1014,3 hPa 0,0 l/m 1,5 km/h (1 Bft) W 265 0 min 0,000 mm 118 W/m 6,4 C 19,3 C 8,0 km/h (2 Bft) 100 %
05.06.2014 18:50 19,1 C 19,1 C 19,3 C 44 % 1014,3 hPa 0,0 l/m 1,4 km/h (1 Bft) SW 229 10 min 0,000 mm 299 W/m 6,6 C 19,1 C 8,0 km/h (2 Bft) 100 %
05.06.2014 19:00 18,9 C 18,9 C 19,1 C 45 % 1014,4 hPa 0,0 l/m 1,3 km/h (1 Bft) SW 229 0 min 0,178 mm 54 W/m 6,7 C 18,9 C 8,0 km/h (2 Bft) 100 %
05.06.2014 19:10 18,6 C 18,6 C 18,9 C 46 % 1014,4 hPa 0,0 l/m 2,6 km/h (1 Bft) S-SW 201 0 min 0,000 mm 63 W/m 6,8 C 18,6 C 14,5 km/h (3 Bft) 100 %
05.06.2014 19:20 18,2 C 18,2 C 18,6 C 48 % 1014,4 hPa 0,0 l/m 1,3 km/h (1 Bft) W-SW 247 0 min 0,000 mm 60 W/m 7,0 C 18,2 C 9,7 km/h (2 Bft) 100 %
05.06.2014 19:30 17,8 C 17,8 C 18,2 C 52 % 1014,5 hPa 0,0 l/m 0,1 km/h (0 Bft) W-SW 247 0 min 0,000 mm 46 W/m 7,8 C 17,8 C 3,2 km/h (1 Bft) 100 %
05.06.2014 19:40 17,3 C 17,3 C 17,8 C 53 % 1014,5 hPa 0,0 l/m 0,0 km/h (0 Bft) W-SW 247 0 min 0,000 mm 33 W/m 7,6 C 17,3 C 1,6 km/h (1 Bft) 100 %
05.06.2014 19:50 17,1 C 17,1 C 17,3 C 54 % 1014,6 hPa 0,0 l/m 0,0 km/h (0 Bft) W-NW 297 0 min 0,000 mm 44 W/m 7,7 C 17,1 C 1,6 km/h (1 Bft) 100 %
05.06.2014 20:00 17,0 C 17,0 C 17,1 C 56 % 1014,6 hPa 0,0 l/m 0,0 km/h (0 Bft) W-NW 297 0 min 0,051 mm 39 W/m 8,2 C 17,0 C 1,6 km/h (1 Bft) 100 %
05.06.2014 20:10 16,9 C 16,9 C 17,0 C 57 % 1014,7 hPa 0,0 l/m 0,0 km/h (0 Bft) W-NW 297 0 min 0,000 mm 30 W/m 8,3 C 16,9 C 0,0 km/h (0 Bft) 100 %
05.06.2014 20:20 16,8 C 16,8 C 16,9 C 60 % 1014,7 hPa 0,0 l/m 0,2 km/h (0 Bft) W-NW 297 0 min 0,000 mm 28 W/m 9,0 C 16,8 C 4,8 km/h (1 Bft) 100 %
05.06.2014 20:30 16,5 C 16,5 C 16,8 C 55 % 1014,6 hPa 0,0 l/m 0,0 km/h (0 Bft) W-NW 298 0 min 0,000 mm 23 W/m 7,4 C 16,5 C 1,6 km/h (1 Bft) 100 %
05.06.2014 20:40 16,4 C 16,4 C 16,5 C 57 % 1014,7 hPa 0,0 l/m 0,0 km/h (0 Bft) W-NW 298 0 min 0,000 mm 21 W/m 7,9 C 16,4 C 0,0 km/h (0 Bft) 100 %
05.06.2014 20:50 16,2 C 16,2 C 16,4 C 60 % 1014,7 hPa 0,0 l/m 0,0 km/h (0 Bft) W-NW 298 0 min 0,000 mm 16 W/m 8,4 C 16,2 C 0,0 km/h (0 Bft) 100 %
05.06.2014 21:00 15,8 C 15,8 C 16,2 C 59 % 1014,8 hPa 0,0 l/m 0,0 km/h (0 Bft) N-NW 342 0 min 0,025 mm 12 W/m 7,8 C 15,8 C 1,6 km/h (1 Bft) 100 %
05.06.2014 21:10 15,4 C 15,4 C 15,7 C 61 % 1014,9 hPa 0,0 l/m 0,0 km/h (0 Bft) N-NW 337 0 min 0,000 mm 12 W/m 7,9 C 15,4 C 1,6 km/h (1 Bft) 97 %
05.06.2014 21:20 15,1 C 15,1 C 15,4 C 61 % 1015,1 hPa 0,0 l/m 0,0 km/h (0 Bft) N-NW 337 0 min 0,000 mm 9 W/m 7,6 C 15,1 C 1,6 km/h (1 Bft) 97 %
05.06.2014 21:30 14,8 C 14,8 C 15,1 C 62 % 1015,2 hPa 0,0 l/m 0,0 km/h (0 Bft) N 0 0 min 0,000 mm 0 W/m 7,6 C 14,8 C 0,0 km/h (0 Bft) 98 %
05.06.2014 21:40 14,4 C 14,4 C 14,8 C 63 % 1015,3 hPa 0,0 l/m 0,0 km/h (0 Bft) N 0 0 min 0,000 mm 0 W/m 7,4 C 14,4 C 0,0 km/h (0 Bft) 98 %
05.06.2014 21:50 14,1 C 14,1 C 14,8 C 65 % 1015,5 hPa 0,0 l/m 0,0 km/h (0 Bft) N-NW 340 0 min 0,000 mm 0 W/m 7,6 C 14,1 C 0,0 km/h (0 Bft) 100 %
05.06.2014 22:00 13,7 C 13,7 C 14,1 C 65 % 1015,6 hPa 0,0 l/m 0,0 km/h (0 Bft) N 0 0 min 0,000 mm 0 W/m 7,2 C 13,7 C 0,0 km/h (0 Bft) 98 %
05.06.2014 22:10 13,4 C 13,4 C 13,7 C 66 % 1015,7 hPa 0,0 l/m 0,0 km/h (0 Bft) N 0 0 min 0,000 mm 0 W/m 7,2 C 13,4 C 0,0 km/h (0 Bft) 97 %
05.06.2014 22:20 13,0 C 13,0 C 13,4 C 67 % 1015,8 hPa 0,0 l/m 0,0 km/h (0 Bft) N 0 0 min 0,000 mm 0 W/m 7,0 C 13,0 C 0,0 km/h (0 Bft) 98 %
05.06.2014 22:30 12,7 C 12,7 C 13,0 C 68 % 1015,9 hPa 0,0 l/m 0,0 km/h (0 Bft) N 0 0 min 0,000 mm 0 W/m 6,9 C 12,7 C 0,0 km/h (0 Bft) 98 %
05.06.2014 22:40 12,5 C 12,5 C 12,7 C 68 % 1015,9 hPa 0,0 l/m 0,0 km/h (0 Bft) N 0 0 min 0,000 mm 0 W/m 6,8 C 12,5 C 0,0 km/h (0 Bft) 97 %
05.06.2014 22:50 12,2 C 12,2 C 12,5 C 69 % 1016,1 hPa 0,0 l/m 0,0 km/h (0 Bft) N 0 0 min 0,000 mm 0 W/m 6,7 C 12,2 C 0,0 km/h (0 Bft) 98 %
05.06.2014 23:00 11,9 C 11,9 C 12,2 C 70 % 1016,1 hPa 0,0 l/m 0,0 km/h (0 Bft) N 0 0 min 0,025 mm 0 W/m 6,6 C 11,9 C 0,0 km/h (0 Bft) 97 %
05.06.2014 23:10 11,8 C 11,7 C 12,0 C 71 % 1016,1 hPa 0,0 l/m 0,0 km/h (0 Bft) N-NW 337 0 min 0,000 mm 0 W/m 6,7 C 11,8 C 1,6 km/h (1 Bft) 97 %
05.06.2014 23:20 11,4 C 11,4 C 11,7 C 72 % 1016,2 hPa 0,0 l/m 0,0 km/h (0 Bft) N-NW 337 0 min 0,000 mm 0 W/m 6,5 C 11,4 C 1,6 km/h (1 Bft) 98 %
05.06.2014 23:30 11,2 C 11,2 C 11,4 C 73 % 1016,3 hPa 0,0 l/m 0,0 km/h (0 Bft) N 0 0 min 0,000 mm 0 W/m 6,5 C 11,2 C 0,0 km/h (0 Bft) 98 %
05.06.2014 23:40 11,0 C 11,0 C 11,2 C 75 % 1016,4 hPa 0,0 l/m 0,0 km/h (0 Bft) N 0 0 min 0,000 mm 0 W/m 6,7 C 11,0 C 0,0 km/h (0 Bft) 98 %
05.06.2014 23:50 10,8 C 10,8 C 11,0 C 76 % 1016,3 hPa 0,0 l/m 0,0 km/h (0 Bft) N 0 0 min 0,000 mm 0 W/m 6,7 C 10,8 C 0,0 km/h (0 Bft) 98 %
_ Min-Zeit 06:40 06:40 06:40 16:00 00:00 - 19:40 - - - - - 16:00 05:30 20:10 12:40
Minimum _ 9,4 C 9,4 C 9,5 C 37 % 1009,1 hPa - 0,0 km/h (0 Bft) - - - - - 5,0 C 8,4 C 0,0 km/h (0 Bft) 96 %
_ Max-Zeit 16:00 16:30 16:00 01:20 23:40 00:00 14:40 - - 15:50 15:00 13:20 00:00 17:30 14:20 00:00
Maximum _ 20,2 C 20,1 C 20,2 C 87 % 1016,4 hPa 0,0 l/m 14,5 km/h
W (3 Bft)
- - 20 min 0,584 mm 1083 W/m 10,4 C 19,9 C 37,0 km/h
W-NW (5 Bft)
100 %
Durchschnitt _ 14,6 C 14,5 C 14,8 C 67 % 1013,8 hPa #0,0 l/m 5,8 km/h (2 Bft) S-SW - #10:30 h #4,622 mm 484 W/m 7,9 C 13,9 C 15,6 km/h (3 Bft) 99 %
PRIVATE WETTERSTATION BILLIGHEIM-ALLFELD - www.neckar-odenwald-wetter.de - Holger Sonntag